DateTime,DeltaTime,Roll,TargetAngle,Position,Power
2022-06-03 10:02:00.077,0,0.4,-1.37,3,36.6
2022-06-03 10:02:00.187,0.11000744998455,0.33,-2.79,6,29.96
2022-06-03 10:02:00.302,0.225003808736801,0.35,-2.32,5,45.23
2022-06-03 10:02:00.416,0.339004397392273,0.14,-4.07,5,34.48
2022-06-03 10:02:00.531,0.454000756144524,0.11,-3.43,6,31.1
2022-06-03 10:02:00.646,0.56900717318058,0.27,-2,5,30.56
2022-06-03 10:02:00.761,0.684003531932831,0.24,-2.98,5,31.79
2022-06-03 10:02:00.875,0.798004120588303,0.3,-2.34,5,29.31
2022-06-03 10:02:00.990,0.913000479340553,0.1,-4.21,6,40.16
2022-06-03 10:02:01.105,1.02800689637661,0.05,-3.74,6,41.21
2022-06-03 10:02:01.219,1.14200748503208,0.2,-2.33,6,34.37
2022-06-03 10:02:01.334,1.25700384378433,0.18,-3.1,5,40.85
2022-06-03 10:02:01.449,1.37200020253658,0.29,-2.16,6,30.95
2022-06-03 10:02:01.563,1.48600079119205,0.05,-4.54,6,51.05
2022-06-03 10:02:01.678,1.60100720822811,0.01,-3.82,6,35.33
2022-06-03 10:02:01.792,1.71500779688358,0.18,-2.34,5,29.75
2022-06-03 10:02:01.903,1.82600095868111,0.16,-3.17,6,31.58
2022-06-03 10:02:02.018,1.94100737571716,0.24,-2.49,5,34.19
2022-06-03 10:02:02.132,2.05500796437263,0.03,-4.49,6,39.52
2022-06-03 10:02:02.247,2.17000432312489,0.01,-3.78,5,40.55
2022-06-03 10:02:02.363,2.28600651025772,0.21,-2.07,6,27.48
2022-06-03 10:02:02.476,2.39900127053261,0.2,-3,6,41.36
2022-06-03 10:02:02.590,2.51300185918808,0.26,-2.44,5,36.81
2022-06-03 10:02:02.706,2.62900404632092,0.09,-4.13,5,41.81
2022-06-03 10:02:02.821,2.74400040507317,0.1,-3.26,4,37.37
2022-06-03 10:02:02.935,2.85800099372864,0.28,-1.92,5,27.58
2022-06-03 10:02:03.050,2.97300741076469,0.17,-3.51,5,44.13
2022-06-03 10:02:03.165,3.08800376951694,0.14,-3.32,4,40.55
2022-06-03 10:02:03.279,3.20200435817242,-0.05,-4.73,5,43.62
2022-06-03 10:02:03.394,3.31700071692467,-0.05,-3.92,5,44.83
2022-06-03 10:02:03.505,3.428003937006,0.16,-2.13,6,36.46
2022-06-03 10:02:03.620,3.54300029575825,0.02,-4.23,6,54.98
2022-06-03 10:02:03.734,3.65700088441372,0.07,-3.23,6,32.77
2022-06-03 10:02:03.849,3.77200730144978,0.14,-2.9,5,33.28
2022-06-03 10:02:03.964,3.88700366020203,0.28,-2.06,6,25.31
2022-06-03 10:02:04.078,4.0010042488575,0.57,-0.31,6,24.59
2022-06-03 10:02:04.193,4.11600060760975,0.57,-1.57,7,32.5
2022-06-03 10:02:04.307,4.23000119626522,0.77,0.01,8,28.62
2022-06-03 10:02:04.422,4.34500761330128,1.16,2.27,10,23.69
2022-06-03 10:02:04.537,4.46000397205353,1.57,3.89,12,27.81
2022-06-03 10:02:04.651,4.574004560709,2.18,7.06,15,21.99
2022-06-03 10:02:04.766,4.68900091946125,2.64,8.1,20,33.79
2022-06-03 10:02:04.881,4.80400733649731,3.53,13.28,27,30.97
2022-06-03 10:02:04.995,4.91800792515278,4.76,19.23,31,37.06
2022-06-03 10:02:05.110,5.03300428390503,6.08,24.61,36,29.48
2022-06-03 10:02:05.225,5.14800064265728,8.22,28,41,39.94
2022-06-03 10:02:05.335,5.25800809264183,11.64,28,39,63.57
2022-06-03 10:02:05.450,5.37300445139408,12.93,28,40,37.99
2022-06-03 10:02:05.565,5.48800081014633,12.41,28,36,46.62
2022-06-03 10:02:05.679,5.6020013988018,14.49,28,27,24.29
2022-06-03 10:02:05.794,5.71700781583786,14.01,28,30,-14.75
2022-06-03 10:02:05.909,5.83200417459011,14.93,28,23,11.95
2022-06-03 10:02:06.023,5.94600476324558,15.17,28,24,-26.8
2022-06-03 10:02:06.138,6.06100112199783,15.12,28,23,-13.09
2022-06-03 10:02:06.253,6.17600753903389,16.61,28,21,-19.77
2022-06-03 10:02:06.369,6.29199966788292,16.51,28,26,-28.92
2022-06-03 10:02:06.483,6.40600025653839,17.46,28,25,-1.93
2022-06-03 10:02:06.597,6.52000084519386,17.67,28,32,-13.67
2022-06-03 10:02:06.712,6.63500726222992,18.75,28,34,22.38
2022-06-03 10:02:06.826,6.74900785088539,20.04,28,35,23.58
2022-06-03 10:02:06.942,6.86499997973442,20.34,28,39,26.51
2022-06-03 10:02:07.056,6.97900056838989,21.96,28,38,45.85
2022-06-03 10:02:07.171,7.09400698542595,22.49,28,37,35.61
2022-06-03 10:02:07.285,7.20800757408142,22.91,28,32,32.83
2022-06-03 10:02:07.400,7.32300393283367,23.97,28,29,9.96
2022-06-03 10:02:07.514,7.43700452148914,24.01,28,27,1.87
2022-06-03 10:02:07.629,7.55200088024139,25.01,28,22,-4.11
2022-06-03 10:02:07.744,7.66700729727745,25,28,23,-26.6
2022-06-03 10:02:07.859,7.7820036560297,25.44,28,22,-15.59
2022-06-03 10:02:07.973,7.89600424468517,26.02,28,23,-22.36
2022-06-03 10:02:08.088,8.01100060343742,26.57,28,22,-16.6
2022-06-03 10:02:08.199,8.12200382351875,26.68,28,22,-23.37
2022-06-03 10:02:08.313,8.23600441217422,25.88,28,22,-22.61
2022-06-03 10:02:08.428,8.35100077092648,24.37,28,0,-23.16
2022-06-03 10:02:08.542,8.46500135958195,25.26,28,-29,-90
2022-06-03 10:02:08.657,8.580007776618,18.38,28,-28,-90
2022-06-03 10:02:08.772,8.69500413537025,6.17,-22,-30,44.68
2022-06-03 10:02:08.886,8.80900472402573,-5.98,-22,-30,-32.7
2022-06-03 10:02:09.001,8.92400108277798,-13.47,-22,-30,-30.81
2022-06-03 10:02:09.115,9.03800167143345,-14.63,-22,-30,-31.55
2022-06-03 10:02:09.231,9.15400385856628,-12.52,-22,-24,-32.28
2022-06-03 10:02:09.345,9.26800444722176,-14.5,-22,0,-3
2022-06-03 10:02:09.460,9.38300080597401,-14,-22,11,90
2022-06-03 10:02:09.574,9.49700139462948,-12.7,-22,27,90
2022-06-03 10:02:09.689,9.61200781166553,-12.4,-22,41,90
2022-06-03 10:02:09.804,9.72700417041779,-6.5,-2.02,41,90
2022-06-03 10:02:09.919,9.84200052917004,1.18,28,42,8.62
2022-06-03 10:02:10.034,9.95700694620609,7.66,28,42,54.18
2022-06-03 10:02:10.148,10.0710075348616,10.55,28,42,51.68
2022-06-03 10:02:10.262,10.185008123517,9.71,28,40,51.68
2022-06-03 10:02:10.379,10.3020060807467,9.91,28,25,41.68
2022-06-03 10:02:10.492,10.4150008410215,11.38,28,13,-29.64
2022-06-03 10:02:10.603,10.5260040611029,9.36,22.11,7,-40.79
2022-06-03 10:02:10.718,10.6410004198551,10.84,28,-11,-90
2022-06-03 10:02:10.831,10.7540052384138,8.74,19.44,-15,-90
2022-06-03 10:02:10.946,10.8690015971661,7.93,22.08,-28,-90
2022-06-03 10:02:11.061,10.9840080142021,5.13,3.06,-29,-90
2022-06-03 10:02:11.176,11.0990043729544,0.91,-18.75,-31,-10.56
2022-06-03 10:02:11.291,11.2140007317066,-2.66,-22,-30,-32.52
2022-06-03 10:02:11.405,11.3280013203621,-4.54,-22,-31,-29.99
2022-06-03 10:02:11.520,11.4430077373981,-4.38,-19.23,-28,-50.86
2022-06-03 10:02:11.635,11.5580040961504,-5.42,-22,-19,-14.6
2022-06-03 10:02:11.749,11.6720046848059,-5.74,-22,-13,22.32
2022-06-03 10:02:11.865,11.7880068719387,-5.42,-22,-7,40.81
2022-06-03 10:02:11.978,11.9010016322136,-5.48,-22,4,63.79
2022-06-03 10:02:12.093,12.0160080492496,-5.13,-21.17,8,90
2022-06-03 10:02:12.208,12.1310044080019,-5.47,-22,17,90
2022-06-03 10:02:12.322,12.2450049966574,-4.06,-12.56,22,90
2022-06-03 10:02:12.437,12.3600013554096,-3.48,-14.06,28,90
2022-06-03 10:02:12.553,12.4760035425425,-2.94,-12.19,35,90
2022-06-03 10:02:12.667,12.5900041311979,-1.42,-2.31,37,90
2022-06-03 10:02:12.781,12.7040047198534,-0.33,-0.17,42,90
2022-06-03 10:02:12.892,12.8150079399347,1.33,8.45,41,90
2022-06-03 10:02:13.006,12.9290085285902,2.86,13.6,40,90
2022-06-03 10:02:13.121,13.0440048873425,3.4,11.21,41,90
2022-06-03 10:02:13.236,13.1590012460947,3.95,13.33,39,90
2022-06-03 10:02:13.351,13.2740076631308,4.57,15.89,33,79.34
2022-06-03 10:02:13.465,13.3880082517862,4.97,16.49,29,52.32
2022-06-03 10:02:13.581,13.5040003806353,5.19,16.46,25,41.06
2022-06-03 10:02:13.694,13.617005199194,5.26,16.02,20,29.62
2022-06-03 10:02:13.809,13.7320015579462,5.33,16.36,15,8.39
2022-06-03 10:02:13.924,13.8470079749823,5.22,15.11,9,-3.01
2022-06-03 10:02:14.039,13.9620043337345,4.75,11.79,5,-11.53
2022-06-03 10:02:14.153,14.07600492239,5.04,16.26,-2,-50.66
2022-06-03 10:02:14.268,14.1910012811422,4.39,9.7,-6,-43.78
2022-06-03 10:02:14.382,14.3050018697977,4.01,9.51,-10,-63.3
2022-06-03 10:02:14.497,14.4200082868338,3.78,9.3,-16,-76.21
2022-06-03 10:02:14.612,14.535004645586,3.02,4.14,-16,-75.45
2022-06-03 10:02:14.727,14.6500010043383,2.16,0.55,-19,-56.4
2022-06-03 10:02:14.842,14.7650074213743,1.93,2.46,-21,-85.64
2022-06-03 10:02:14.952,14.8750048130751,0.72,-6.32,-22,-45.3
2022-06-03 10:02:15.067,14.9900011718273,0.07,-6.31,-22,-59.25
2022-06-03 10:02:15.181,15.1040017604828,-0.31,-6.54,-21,-56.79
2022-06-03 10:02:15.296,15.2190081775188,-0.79,-8.66,-19,-41.46
2022-06-03 10:02:15.411,15.3340045362711,-1.35,-11.15,-18,-24.25
2022-06-03 10:02:15.526,15.4490008950233,-1.52,-10.04,-15,-31.35
2022-06-03 10:02:15.641,15.5640073120594,-1.66,-10.5,-13,-14.67
2022-06-03 10:02:15.755,15.6780079007149,-1.93,-11.97,-9,-2.26
2022-06-03 10:02:15.869,15.7920084893703,-2.05,-11.87,-7,12.63
2022-06-03 10:02:15.984,15.9070048481226,-1.63,-7.84,-4,-2.39
2022-06-03 10:02:16.099,16.0220012068748,-1.78,-10.93,1,30.85
2022-06-03 10:02:16.213,16.1360017955303,-2.06,-12.54,4,56.53
2022-06-03 10:02:16.328,16.2510082125664,-1.26,-4.86,7,26.57
2022-06-03 10:02:16.443,16.3660045713186,-1.87,-13.28,10,90
2022-06-03 10:02:16.557,16.4800051599741,-1.24,-5.56,13,51.27
2022-06-03 10:02:16.673,16.5960073471069,-1.18,-7.81,15,83.71
2022-06-03 10:02:16.787,16.7100079357624,-0.49,-2.48,17,60.16
2022-06-03 10:02:16.902,16.8250042945147,-0.25,-3.59,18,80.1
2022-06-03 10:02:17.012,16.9350016862154,-0.03,-2.83,19,77.2
2022-06-03 10:02:17.127,17.0500081032515,1,4.51,20,45.18
2022-06-03 10:02:17.241,17.1640086919069,0.75,-2.06,19,90
2022-06-03 10:02:17.356,17.2790050506592,1.23,2.94,19,51.4
2022-06-03 10:02:17.471,17.3940014094114,1.25,1.01,18,68.96
2022-06-03 10:02:17.585,17.5080019980669,1.87,5.97,17,36.61
2022-06-03 10:02:17.701,17.6240041851997,1.69,1.75,16,61.61
2022-06-03 10:02:17.815,17.7380047738552,1.76,3.08,13,44.63
2022-06-03 10:02:17.929,17.8520053625107,2.24,6.68,12,15.86
2022-06-03 10:02:18.044,17.9670017212629,1.77,0.79,10,49.53
2022-06-03 10:02:18.160,18.0830039083958,1.87,3.66,8,17.01
2022-06-03 10:02:18.274,18.1970044970512,1.55,0.61,7,29.26
2022-06-03 10:02:18.389,18.3120008558035,1.96,5.35,4,-0.18
2022-06-03 10:02:18.503,18.426001444459,1.4,-0.96,4,24.05
2022-06-03 10:02:18.618,18.541007861495,1.19,-0.21,1,16.4
2022-06-03 10:02:18.728,18.6510052531958,1.38,2.21,0,-9.33
2022-06-03 10:02:18.843,18.766001611948,0.63,-4.65,0,26.99
2022-06-03 10:02:18.957,18.8800022006035,0.74,-0.49,-2,-1.09
2022-06-03 10:02:19.072,18.9950086176395,0.23,-5.11,-3,17.53
2022-06-03 10:02:19.187,19.1100049763918,0.69,0.87,-4,-20.54
2022-06-03 10:02:19.301,19.2240055650473,0.04,-6.36,-3,19.42
2022-06-03 10:02:19.416,19.3390019237995,-0.29,-6.26,-3,15.96
2022-06-03 10:02:19.531,19.4540083408356,-0.19,-3.96,-3,3.59
2022-06-03 10:02:19.646,19.5690046995878,-0.36,-5.76,-4,15.69
2022-06-03 10:02:19.761,19.6840010583401,-0.22,-3.94,-2,-0.53
2022-06-03 10:02:19.875,19.7980016469955,-0.95,-10.43,0,45.63
2022-06-03 10:02:19.989,19.912002235651,-0.0600000000000001,-0.04,0,-10.85
2022-06-03 10:02:20.105,20.0280044227839,-0.96,-11.17,2,55.86
2022-06-03 10:02:20.219,20.1420050114393,-0.4,-2.71,3,8.9
2022-06-03 10:02:20.334,20.2570013701916,-0.96,-9.69,4,57.73
2022-06-03 10:02:20.444,20.3670088201761,-0.04,0.18,4,2.46
2022-06-03 10:02:20.559,20.4820051789284,-0.79,-9.94,4,65.09
2022-06-03 10:02:20.674,20.5970015376806,-0.52,-4.45,7,24.01
2022-06-03 10:02:20.789,20.7120079547167,-0.65,-6.68,7,58.12
2022-06-03 10:02:20.904,20.8270043134689,0.08,-0.19,8,18.04
2022-06-03 10:02:21.018,20.9410049021244,-0.41,-7.37,8,68.12
2022-06-03 10:02:21.133,21.0560012608767,-0.17,-3.24,8,36.08
2022-06-03 10:02:21.247,21.1700018495321,-0.0800000000000001,-3.59,9,44.27
2022-06-03 10:02:21.363,21.286004036665,0.13,-2.35,9,43.67
2022-06-03 10:02:21.476,21.3990088552237,0.16,-2.98,9,48.19
2022-06-03 10:02:21.591,21.5140052139759,0.04,-4.08,9,49.74
2022-06-03 10:02:21.706,21.6290015727282,0.61,1.04,10,22.65
2022-06-03 10:02:21.820,21.7430021613836,-0.02,-6.5,8,72.85
2022-06-03 10:02:21.935,21.8580085784197,0.35,-0.82,8,22.48
2022-06-03 10:02:22.046,21.9690017402172,-0.05,-5.61,8,57.35
2022-06-03 10:02:22.160,22.0830023288727,1.09,5.3,7,-4.33
2022-06-03 10:02:22.274,22.1970029175282,0.08,-7.78,7,70.67
2022-06-03 10:02:22.389,22.3119992762804,0.39,-0.95,7,20.4
2022-06-03 10:02:22.504,22.4270056933165,-0.05,-5.82,6,54.41
2022-06-03 10:02:22.619,22.5420020520687,0.56,1.06,5,7.9
2022-06-03 10:02:22.734,22.6570084691048,0.08,-5.48,5,46.41
2022-06-03 10:02:22.848,22.7710090577602,-0.0800000000000001,-4.69,5,34.75
2022-06-03 10:02:22.963,22.8860054165125,0.14,-2.2,6,24.18
2022-06-03 10:02:23.079,23.0020076036453,-0.17,-5.7,4,50.66
2022-06-03 10:02:23.192,23.1150023639202,-0.04,-3.3,5,21.19
2022-06-03 10:02:23.307,23.2300087809563,-0.39,-6.69,5,49.55
2022-06-03 10:02:23.423,23.3460009098053,0.48,1.89,4,0.25
2022-06-03 10:02:23.537,23.4600014984608,-0.42,-9.19,5,62.22
2022-06-03 10:02:23.647,23.5700089484453,-0.0700000000000001,-2.44,5,19.91
2022-06-03 10:02:23.762,23.6850053071976,-0.63,-8.49,3,58.41
2022-06-03 10:02:23.876,23.799005895853,0.3,1.48,4,-10.07
2022-06-03 10:02:23.991,23.9140022546053,-0.41,-8.28,6,59.6
2022-06-03 10:02:24.106,24.0290086716413,-0.3,-4.36,5,35.72
2022-06-03 10:02:24.221,24.1440050303936,-0.27,-4.57,4,35.23
2022-06-03 10:02:24.335,24.2580056190491,-0.35,-5.32,5,35.92
2022-06-03 10:02:24.450,24.3730019778013,-0.28,-4.43,5,37.61
2022-06-03 10:02:24.565,24.4880083948374,-0.56,-7.01,5,51.27
2022-06-03 10:02:24.679,24.6020089834929,0.38,1.79,5,0.29
2022-06-03 10:02:24.794,24.7170053422451,-0.61,-10.24,5,72.35
2022-06-03 10:02:24.909,24.8320017009974,0.03,-0.77,6,8.87
2022-06-03 10:02:25.023,24.9460022896528,-0.69,-9.44,6,70.24
2022-06-03 10:02:25.138,25.0610087066889,0.1,0.14,6,9.08
2022-06-03 10:02:25.249,25.1720018684864,-0.18,-5.63,6,51.01
2022-06-03 10:02:25.366,25.288999825716,-0.42,-6.29,6,46.25
2022-06-03 10:02:25.478,25.4010088741779,0.33,0.8,6,9.91
2022-06-03 10:02:25.592,25.5149994045496,-0.59,-9.92,6,73.3
2022-06-03 10:02:25.707,25.6300058215857,0.01,-1.02,6,14.24
2022-06-03 10:02:25.822,25.7450021803379,-0.69,-9.29,6,67.93
2022-06-03 10:02:25.938,25.8610043674707,0.08,-0.05,5,10.21
2022-06-03 10:02:26.051,25.9740091860294,-0.26,-6.16,6,48.47
2022-06-03 10:02:26.166,26.0890055447817,-0.45,-6.2,5,46.38
2022-06-03 10:02:26.281,26.2040019035339,0.27,0.48,6,6.62
2022-06-03 10:02:26.395,26.3180024921894,-0.52,-9.07,6,69.89
2022-06-03 10:02:26.511,26.4340046793222,-0.03,-1.71,7,18.8
2022-06-03 10:02:26.625,26.5480052679777,-0.5,-7.58,6,63.52
2022-06-03 10:02:26.739,26.6620058566332,-0.26,-3.66,5,29.2
2022-06-03 10:02:26.851,26.7740048468113,-0.22,-4.36,6,35.03
2022-06-03 10:02:26.964,26.8869996070862,-0.69,-8.25,6,60.75
2022-06-03 10:02:27.079,27.0020060241222,0.29,1.65,5,3.07
2022-06-03 10:02:27.194,27.1170023828745,-0.42,-8.35,6,61.5
2022-06-03 10:02:27.309,27.2320087999105,-0.36,-4.77,5,36.35
2022-06-03 10:02:27.424,27.3470051586628,0.01,-2.02,5,21.99
2022-06-03 10:02:27.538,27.4610057473183,-0.58,-8.46,5,59.74
2022-06-03 10:02:27.653,27.5760021060705,-0.13,-2.19,5,18.32
2022-06-03 10:02:27.768,27.6910085231066,-0.54,-7.5,6,53.78
2022-06-03 10:02:27.882,27.805009111762,-0.19,-2.9,5,28.14
2022-06-03 10:02:27.996,27.9189996421337,-0.13,-3.87,6,33.54
2022-06-03 10:02:28.111,28.0340060591698,-0.67,-8.53,6,62.71
2022-06-03 10:02:28.226,28.149002417922,0.4,2.43,5,-1.21
2022-06-03 10:02:28.341,28.2640088349581,-0.27,-7.64,6,58.91
2022-06-03 10:02:28.455,28.3779993653297,-0.26,-4.61,6,36.51
2022-06-03 10:02:28.566,28.4890025854111,0.16,-1.25,5,23.33
2022-06-03 10:02:28.681,28.6040090024471,-0.47,-8.22,6,58.28
2022-06-03 10:02:28.796,28.7190053611994,0.02,-1.49,7,20.13
2022-06-03 10:02:28.909,28.8320001214743,-0.36,-6.7,5,59.39
2022-06-03 10:02:29.025,28.9480023086071,-0.31,-4.64,6,30.29
2022-06-03 10:02:29.139,29.0620028972626,-0.11,-3.23,6,34.4
